Lapse_Rate
8.1 8.0 8.0 8.0 8.0 7.9 7.9 7.7 7.7 7.6 7.5 7.4 7.3 7.2 7.2 7.1 7.0 7.0 7.0 7.0 6.9 6.8 6.7 6.7 6.6 6.6 6.6 6.6 6.6 6.5 6.5 6.5 6.5 6.5 6.5 6.4 6.4 6.4 6.4 6.4 6.5 6.4 6.3
8.2 8.0 7.8 7.8 7.8 7.7 7.7 7.7 7.6 7.5 7.5 7.4 7.3 7.2 7.2 7.1 7.1 7.1 7.1 7.1 7.1 6.9 6.9 6.8 6.8 6.8 6.7 6.7 6.7 6.6 6.6 6.6 6.6 6.6 6.6 6.6 6.5 6.5 6.6 6.5 6.5 6.5 6.3
8.1 8.0 7.8 7.7 7.6 7.6 7.5 7.6 7.6 7.5 7.4 7.4 7.4 7.3 7.3 7.3 7.2 7.3 7.3 7.2 7.2 7.1 7.1 7.0 6.9 6.9 6.8 6.8 6.8 6.7 6.6 6.5 6.7 6.8 6.7 6.6 6.6 6.5 6.4 6.3 6.4 6.3 6.4
7.8 7.8 7.6 7.6 7.5 7.5 7.5 7.4 7.4 7.4 7.4 7.3 7.3 7.2 7.2 7.2 7.2 7.2 7.1 7.2 7.1 7.1 7.1 7.0 6.9 6.8 6.8 6.7 6.7 6.7 6.7 6.6 6.5 6.7 6.8 6.9 6.4 6.4 6.5 6.5 6.4 6.4 6.3
7.6 7.5 7.4 7.4 7.5 7.4 7.4 7.3 7.4 7.3 7.3 7.2 7.2 7.2 7.1 7.0 7.1 7.1 7.1 7.1 7.1 7.1 7.1 7.0 7.0 7.0 7.0 6.9 6.8 6.7 6.6 6.6 6.5 6.6 6.7 6.7 6.5 6.5 6.5 6.6 6.5 6.5 6.4
7.9 7.4 7.3 7.3 7.3 7.3 7.3 7.3 7.3 7.3 7.2 7.1 7.1 7.0 7.0 7.1 7.1 7.0 7.0 6.9 6.9 6.8 6.9 7.0 7.0 6.9 7.0 6.9 6.8 6.7 6.6 6.6 6.5 6.4 6.6 6.5 6.7 6.6 6.5 6.6 6.6 6.6 6.5
8.3 7.8 7.7 7.4 7.3 7.3 7.3 7.3 7.4 7.2 6.9 6.9 6.8 6.9 6.9 6.8 6.8 6.8 6.8 6.8 6.8 6.8 6.8 6.7 6.7 6.7 6.7 6.7 6.7 6.8 6.7 6.5 6.3 6.2 6.4 6.1 6.2 6.4 6.5 6.4 6.6 6.5 6.6
8.1 7.9 7.9 7.9 7.9 7.8 7.5 7.3 7.2 7.2 7.1 7.0 6.8 6.8 6.8 6.9 6.9 6.8 6.8 6.8 6.8 6.8 6.8 6.7 6.7 6.6 6.6 6.6 6.6 6.6 6.6 6.5 6.4 6.4 6.1 6.8 6.4 6.4 6.4 6.5 6.5 6.5 6.6
8.1 8.1 8.0 7.8 7.8 7.9 8.0 7.8 7.8 7.7 7.6 7.4 7.3 7.2 7.1 7.1 7.0 6.9 6.9 6.9 7.0 7.0 7.0 7.0 6.9 6.9 6.8 6.7 6.7 6.6 6.6 6.6 6.4 6.3 6.3 6.0 6.4 6.5 6.4 6.4 6.5 6.6 6.5
8.3 8.3 8.4 8.1 7.9 7.9 7.9 8.0 8.0 7.9 7.8 7.7 7.6 7.6 7.5 7.4 7.4 7.4 7.3 7.4 7.5 7.3 7.2 7.1 7.0 6.9 6.9 6.9 6.9 6.8 6.7 6.8 6.6 6.4 6.3 6.3 6.6 6.3 6.2 6.2 6.3 6.5 6.5
8.3 8.2 8.1 8.2 7.9 7.9 8.1 8.0 7.8 7.9 7.6 7.6 7.7 7.7 7.6 7.6 7.5 7.4 7.5 7.6 7.4 7.3 7.3 7.3 7.2 7.1 6.9 6.9 6.8 6.8 6.9 6.9 6.9 6.6 6.5 6.6 6.9 6.4 6.4 6.3 6.4 6.3 6.5
7.9 8.1 8.3 8.2 8.3 7.9 7.8 8.1 7.8 7.7 7.7 7.8 7.7 7.5 7.4 7.2 7.2 7.4 7.4 7.2 7.1 7.1 7.0 7.0 7.1 7.3 7.2 7.0 6.9 6.8 6.9 6.9 6.8 6.9 6.8 6.7 7.0 6.8 6.6 6.6 6.4 6.4 6.5
7.7 8.5 8.0 8.4 8.5 8.2 8.1 7.9 7.7 7.7 7.8 7.4 7.4 7.5 7.5 7.3 7.3 7.2 7.1 7.2 7.2 7.0 7.1 7.1 7.0 7.0 7.0 7.1 7.0 6.9 7.0 6.9 6.9 6.6 6.5 6.7 6.9 7.0 6.6 6.7 6.6 6.5 6.5
6.8 7.3 8.2 8.2 8.0 8.0 8.1 8.1 7.9 7.6 7.6 7.5 7.5 7.4 7.2 7.2 7.2 7.1 7.1 7.1 6.9 7.1 7.0 6.9 7.1 7.0 6.9 7.1 7.3 7.0 6.8 6.6 6.4 5.8 6.6 6.8 6.6 7.1 7.0 6.8 6.7 6.6 6.5
6.6 8.5 8.3 8.4 8.1 7.9 7.8 7.9 8.0 7.8 7.7 7.7 7.4 7.5 7.3 7.1 7.0 7.1 7.1 6.9 6.9 6.7 6.8 7.0 6.7 6.6 6.8 6.8 6.7 6.6 6.6 6.6 6.5 6.4 6.5 6.2 6.2 6.4 6.5 6.5 6.6 6.7 6.6
7.8 8.1 8.1 8.1 7.8 7.7 7.9 7.9 7.7 7.4 7.3 7.7 7.7 7.5 7.3 7.3 7.1 7.1 7.1 6.9 7.0 6.9 6.7 6.6 6.5 6.4 6.6 6.6 6.6 6.5 6.6 6.6 6.6 6.6 6.5 6.5 6.7 6.5 6.5 6.7 6.7 6.6 6.6
8.0 8.0 8.1 8.2 7.7 7.5 7.5 7.7 7.5 7.4 7.2 7.5 7.8 7.6 7.5 7.3 7.2 7.0 7.0 7.1 7.1 6.9 6.8 6.8 6.6 6.5 6.5 6.5 6.6 6.7 6.7 6.8 6.8 6.7 6.8 6.6 6.5 6.5 6.5 6.6 6.5 6.3 6.5
8.2 8.1 7.9 7.6 7.4 7.2 7.1 6.9 7.0 6.9 6.8 6.9 7.0 7.1 7.4 7.5 7.5 7.5 7.3 7.1 7.1 7.0 6.9 6.7 6.7 6.9 6.9 6.9 6.8 6.7 6.7 6.8 7.0 7.2 7.0 6.7 6.6 6.6 6.6 6.5 6.5 6.4 6.4
7.9 7.8 8.1 8.2 7.7 7.2 6.9 6.5 6.6 6.8 6.9 6.8 6.8 7.1 7.1 7.2 7.1 6.9 6.9 7.0 6.7 6.6 6.6 6.6 6.6 6.6 6.7 6.8 6.8 6.9 6.8 6.8 6.7 6.8 7.0 7.2 7.0 6.7 6.4 6.4 6.3 6.4 6.3
7.8 7.8 7.7 8.0 8.0 7.6 7.0 6.8 6.7 6.7 6.7 6.6 6.5 6.3 6.4 6.5 6.5 6.0 6.2 6.4 6.3 6.3 6.3 6.5 6.4 6.4 6.3 6.5 6.8 7.0 7.0 7.0 7.0 6.9 6.9 6.9 6.9 6.8 6.5 6.2 6.1 6.3 6.3
8.3 8.1 8.0 7.7 7.4 7.5 7.1 7.0 6.8 6.8 6.8 6.7 6.8 6.1 5.2 5.5 5.6 5.9 5.5 5.5 5.3 5.4 5.9 6.0 6.2 6.0 5.9 5.9 6.3 6.6 6.7 6.9 7.0 7.0 7.1 7.0 6.8 6.5 6.0 6.4 6.5 6.1 6.0
7.9 7.9 7.8 7.5 7.4 7.3 7.1 6.8 6.5 6.4 6.4 6.5 6.6 6.4 6.1 6.3 6.1 5.6 5.5 5.0 4.7 4.7 4.7 5.1 5.3 5.3 5.6 6.0 5.9 6.1 6.3 6.5 6.4 6.9 6.8 7.1 6.7 6.5 6.2 6.0 6.2 6.3 6.3
7.7 7.5 7.3 7.3 7.1 6.9 6.6 6.2 5.9 5.8 5.8 5.9 5.9 5.9 5.8 5.5 5.3 5.3 5.3 5.2 5.4 5.4 5.2 5.5 5.3 5.5 5.4 5.0 5.0 5.5 6.0 6.1 5.9 6.1 6.2 6.4 6.3 6.2 6.0 5.8 5.7 5.8 5.8
7.6 7.5 7.2 7.0 6.8 6.7 6.5 6.0 5.4 5.0 5.1 5.2 5.3 5.4 5.4 4.9 4.9 5.0 5.2 5.3 5.1 5.0 5.0 4.7 4.6 4.7 4.3 4.7 4.8 5.1 5.3 5.6 5.8 6.0 5.5 5.8 5.8 5.5 5.3 5.4 5.5 5.5 5.6
7.3 7.2 7.1 6.7 6.6 6.4 6.3 5.8 5.0 4.7 4.6 4.8 5.0 4.9 4.7 4.3 4.4 4.8 5.1 5.2 4.8 4.5 4.4 4.4 4.6 4.6 4.5 4.5 5.0 5.0 5.4 5.4 5.1 4.9 5.9 5.3 5.0 5.4 5.4 5.7 5.7 5.5 5.4
6.7 6.9 6.9 6.5 6.2 5.8 5.8 5.4 4.8 4.5 4.6 4.7 4.7 4.5 4.3 4.2 4.3 4.4 4.5 4.8 4.8 4.6 4.6 4.3 4.2 4.5 5.0 5.2 5.2 5.4 5.3 5.1 5.0 4.8 4.7 5.2 5.1 5.1 5.0 5.2 5.3 5.3 5.2
Wind_Speed
15 16 17 16 16 15 14 14 15 13 13 11 11 12 13 13 12 14 14 13 13 13 12 11 10 9 10 10 11 12 13 14 14 15 15 15 12 12 10 5 2 14 14
18 18 18 18 16 14 16 15 14 14 14 12 12 12 12 12 12 12 12 12 12 11 9 8 8 8 9 9 10 10 10 10 10 12 14 15 12 11 11 17 16 13 14
18 19 18 20 20 16 15 16 15 13 12 12 12 11 11 11 11 11 10 10 10 9 8 8 7 7 7 7 8 8 7 4 5 8 13 14 13 9 10 14 16 13 11
17 17 17 19 20 18 16 14 15 14 13 13 12 12 11 11 10 9 8 8 7 7 6 5 5 6 7 7 6 5 4 5 6 6 9 8 15 10 8 10 12 10 11
14 19 17 18 19 17 16 16 15 15 15 15 14 13 11 10 9 8 8 6 5 5 5 4 5 5 5 5 6 5 4 8 9 7 14 9 18 14 10 8 8 9 6
15 22 17 17 17 16 15 14 14 14 15 14 12 11 10 9 9 9 8 5 3 3 3 3 4 4 5 5 5 6 7 10 8 12 16 15 18 16 13 9 4 11 11
17 20 18 16 16 14 12 13 14 14 14 15 14 13 12 11 10 9 8 6 4 4 3 3 2 3 5 6 7 7 8 11 10 13 15 14 21 19 14 10 9 11 11
16 17 17 15 17 17 14 11 8 8 9 9 9 9 9 10 10 10 9 8 7 6 5 5 4 4 5 6 7 8 9 12 13 15 16 15 23 23 18 12 10 10 11
15 14 15 14 13 12 12 11 10 8 6 6 6 6 7 7 6 8 9 9 8 7 6 7 6 6 7 8 8 9 11 13 13 16 20 14 25 22 20 15 12 11 12
12 11 9 13 13 11 9 8 7 6 5 6 6 6 7 7 8 10 11 11 11 10 9 9 9 10 10 10 11 12 13 14 15 15 18 5 25 22 20 18 13 11 12
9 12 11 11 14 16 14 10 8 5 3 2 3 4 5 8 13 13 14 12 16 12 11 11 13 13 14 13 14 17 17 13 15 15 17 19 24 23 22 20 18 15 14
12 11 9 7 7 12 12 13 11 10 3 3 4 5 10 14 10 7 7 11 10 10 11 12 13 14 13 12 14 23 15 16 16 16 17 28 26 23 22 20 19 17 17
13 8 12 10 12 10 10 9 10 13 11 11 14 13 12 12 12 9 4 5 8 13 9 14 13 13 13 14 15 14 16 17 16 18 15 28 28 25 24 23 20 19 19
12 8 12 13 9 15 13 11 12 11 11 11 12 15 12 10 10 11 10 10 9 11 7 8 6 10 11 14 16 15 12 13 14 18 12 24 22 22 23 23 23 21 21
1 13 13 10 7 10 11 12 12 10 10 11 12 14 15 11 7 10 9 10 7 13 12 10 9 10 7 7 7 11 9 11 14 14 13 12 12 13 17 19 22 23 23
13 14 11 10 10 14 8 11 8 10 9 12 13 13 15 12 10 8 7 8 10 15 14 13 8 5 5 8 6 8 8 9 9 13 14 11 14 18 20 19 21 22 22
13 13 12 12 13 10 7 10 9 9 10 6 10 15 14 15 14 12 6 5 11 15 18 13 11 10 5 6 6 6 8 9 8 10 13 12 11 17 19 22 18 19 20
11 9 7 9 10 10 8 8 10 7 8 10 14 14 13 15 15 12 7 6 14 13 12 6 5 5 5 5 5 5 5 8 9 8 13 13 13 13 17 23 24 23 21
10 9 8 6 5 7 7 8 8 12 11 13 15 13 15 15 15 12 8 10 12 8 5 5 5 6 7 7 8 6 5 5 6 9 8 9 13 16 14 16 21 23 24
8 7 6 5 4 7 4 6 5 6 9 12 10 10 11 11 13 10 10 11 13 6 6 6 6 5 5 6 8 7 5 5 5 5 6 12 11 12 13 14 7 9 16
7 7 6 5 3 4 1 3 3 4 4 3 6 7 7 8 6 4 6 5 6 4 5 7 6 9 7 7 7 6 4 6 7 6 6 5 6 10 5 8 8 9 8
6 7 6 5 4 4 4 3 3 3 2 2 5 5 4 7 9 8 8 4 5 4 4 5 6 4 3 6 5 6 4 5 7 5 3 2 2 4 4 0 4 8 9
6 6 6 6 5 6 5 4 3 2 2 3 3 2 6 3 5 6 6 5 7 5 4 0 4 5 4 4 7 4 4 3 8 3 6 7 6 4 4 6 8 8 8
7 7 5 7 6 4 6 5 6 4 3 3 3 4 6 7 6 3 4 4 5 6 5 3 4 2 4 5 5 5 5 5 3 4 4 7 5 5 5 3 4 7 9
8 7 5 7 6 6 4 4 4 4 2 2 2 6 3 1 1 4 6 3 5 5 4 5 5 6 4 5 5 4 5 4 5 3 7 5 4 4 3 4 4 6 9
7 9 7 7 7 6 4 2 4 3 3 3 2 3 3 1 1 3 5 4 5 5 4 3 4 5 6 6 6 6 6 4 5 4 4 5 5 5 4 4 4 5 9
Wind_Direction
121 128 114 104 105 114 127 131 126 124 120 118 115 114 114 113 108 100 99 97 101 110 115 113 107 98 88 80 80 80 85 89 94 97 99 97 89 82 59 33 117 87 89
124 128 116 107 102 107 123 130 131 132 132 131 128 128 125 126 123 116 108 108 107 105 102 97 90 86 86 85 84 82 83 92 108 115 114 103 90 79 57 64 107 95 91
125 135 125 115 114 118 124 135 138 137 136 137 137 135 136 136 136 133 125 115 114 120 121 110 99 84 80 86 98 102 101 127 136 147 154 135 109 97 92 95 102 104 101
131 142 130 123 120 126 132 140 145 143 143 146 147 149 151 151 147 143 140 130 132 124 113 111 113 119 125 124 118 115 144 203 192 194 230 220 130 123 110 108 110 117 113
137 137 127 124 123 127 136 143 150 154 155 158 157 159 160 157 158 156 159 153 147 133 130 133 132 136 138 145 142 151 197 241 236 228 243 205 134 141 134 126 131 130 142
147 113 123 126 125 128 136 143 152 158 160 160 161 160 164 166 168 170 174 169 157 154 163 161 152 160 163 167 170 184 214 246 279 272 258 95 128 147 147 164 131 130 129
105 121 128 130 127 131 136 147 158 163 163 165 168 172 175 176 179 183 185 184 188 200 206 192 195 199 199 194 196 210 233 253 254 258 274 127 134 150 152 157 153 141 142
119 125 135 138 139 141 142 144 149 156 160 166 173 182 186 188 191 191 191 196 202 206 210 212 222 222 229 233 232 234 241 259 275 263 267 140 151 156 155 164 169 164 161
120 124 133 142 137 139 141 143 144 147 155 169 180 189 199 205 204 206 208 211 213 213 216 216 227 237 237 243 246 246 256 266 283 297 303 148 162 157 157 165 180 183 178
124 126 141 139 147 143 132 125 129 137 158 175 190 203 209 214 214 215 216 214 213 214 214 219 221 227 235 238 240 242 244 259 269 278 286 182 164 162 162 165 178 193 192
145 145 156 157 163 159 145 142 134 129 148 183 219 231 234 239 219 228 218 228 214 212 217 218 221 224 230 238 241 240 235 230 241 240 256 174 169 167 167 167 178 192 198
149 155 155 110 80 122 131 151 169 165 144 75 38 173 233 239 268 244 198 193 196 219 226 236 237 234 235 241 236 236 227 230 234 246 242 181 175 171 171 171 183 195 198
106 71 59 59 44 57 66 65 62 54 66 49 31 21 16 9 10 330 291 207 231 220 237 230 234 232 236 232 244 238 215 227 237 244 243 181 179 175 174 175 187 197 203
15 99 72 60 54 47 60 49 48 47 57 48 39 19 23 26 16 24 9 353 4 3 291 281 252 269 263 270 267 276 257 243 278 280 268 190 188 184 181 180 187 197 202
155 93 78 77 63 64 61 54 50 51 55 59 50 36 31 24 8 4 15 3 17 11 3 354 351 351 328 301 291 296 312 277 261 269 296 197 200 202 198 194 197 201 204
106 98 102 93 85 82 79 82 78 72 69 70 57 44 32 39 10 359 17 332 3 11 343 331 317 314 308 310 299 280 262 264 286 291 289 279 208 216 219 214 211 214 213
101 101 112 123 113 104 114 123 131 137 129 109 85 50 44 32 18 352 347 347 27 355 326 333 332 324 323 316 318 322 313 258 235 256 282 286 272 225 229 229 224 226 230
91 92 75 93 110 134 146 164 137 137 106 87 72 64 49 42 30 1 352 18 10 339 326 337 325 326 324 324 318 310 314 312 306 247 240 247 248 248 234 231 230 230 231
63 74 70 66 74 94 95 90 78 78 60 58 58 47 40 37 35 17 2 8 352 330 335 339 357 348 330 324 316 310 314 319 319 315 313 297 237 232 231 226 234 231 231
88 90 92 87 90 91 95 92 92 92 84 80 74 65 52 47 34 24 20 5 353 352 351 356 323 321 302 294 298 298 289 274 276 274 274 286 305 294 255 232 222 227 244
122 122 102 105 109 116 116 111 70 67 72 72 97 100 99 96 67 19 41 8 355 341 333 8 341 346 337 335 312 301 300 284 272 250 241 252 272 288 251 122 149 156 124
144 138 134 141 96 86 89 97 104 121 164 174 152 123 55 62 38 16 27 356 343 330 346 13 334 322 319 336 324 294 324 324 8 306 249 302 301 326 340 179 215 176 190
158 157 167 144 148 92 103 111 119 127 117 50 20 17 357 27 64 18 346 339 327 323 326 202 293 290 308 321 302 301 329 334 346 345 339 14 354 347 360 6 341 355 341
173 156 169 134 108 105 77 73 67 62 55 37 3 353 313 354 360 219 284 320 295 307 309 339 296 301 309 297 297 292 285 272 276 312 338 325 310 307 302 303 329 334 331
160 148 176 127 129 101 82 87 83 82 69 15 274 251 270 271 351 351 329 284 294 305 324 317 328 342 304 289 286 305 307 307 299 284 294 306 319 338 10 1 346 333 319
152 153 153 147 136 151 112 91 101 135 190 236 314 287 291 300 285 247 232 273 269 278 279 301 307 308 301 306 307 303 294 289 293 300 298 297 292 300 339 323 303 285 278